SITRO-AIS B

Last updated on Sun Apr 21 2024 00:03:33 GMT+0000 (Coordinated Universal Time)

1 59052U 24039B 24111.60115728 .00034679 00000+0 13941-2 0 9996 2 59052 97.3879 74.2153 0021710 64.6200 295.7282 15.24620630 7817
UTC large
Height (km)
Speed (km/s)
/
Latitude / Longitude
Inclination (degrees)
Orbital Period (minutes)
Azimuth
Elevation
Range (km)
Doppler Factor

Next 0 passes for location: London (51.5072 / 0.1276)

Sorry there are no passes over London.